Spokane Fairchild, WA
on Wednesday, November 7, 2012

Wednesday
Previous Day Next Day
Daily Summary
 ActualAverage (KGEG)Record (KGEG)
Temperature
Mean Temperature °F 39°F  
Max Temperature 50°F 46°F 60°F (2006)
Min Temperature 30°F 32°F 14°F (1936)
Degree Days
Heating Degree Days 25 26  
Month to date heating degree days 175  
Since 1 July heating degree days 963  
Cooling Degree Days 0 0  
Month to date cooling degree days 0  
Year to date cooling degree days 450  
Moisture
Dew Point 36°F   
Average Humidity 86    
Maximum Humidity 100    
Minimum Humidity 40    
Precipitation
Precipitation 0.00 in 0.07 in 1.38 in (1885)
Month to date precipitation 0.46  
Year to date precipitation 12.42  
Snow
Snow 0.00 in 0.10 in 2.70 in (1995)
Month to date snowfall 0.6  
Since 1 July snowfall 0.7  
Since 1 September snowfall 0.7  
Snow Depth in   
Wind
Wind Speed 11 mph   
Max Wind Speed 21 mph   
Max Gust Speed 26 mph   
Visibility 10 miles   
Events Rain   

Key: T is trace of precipitation, MM is missing value
Source: NWS Daily Summary
Time(PST)TemperatureDew PointHumidity Pressure Visibility Wind DirectionWind SpeedGust SpeedPrecipitationEvents Conditions
12:03 AM 50.0°F 50.0°F 100% 29.88 in 6.0 miles SSW 9.2 mph - N/A   Overcast
12:26 AM 50.0°F 50.0°F 100% 29.87 in 6.0 miles South 8.1 mph - N/A Rain Light Rain
12:41 AM 48.2°F 48.2°F 100% 29.87 in 6.0 miles South 11.5 mph - N/A Rain Light Rain
12:42 AM 48.2°F 48.2°F 100% 29.87 in 6.0 miles South 11.5 mph - N/A   Overcast
12:56 AM 48.2°F 48.2°F 100% 29.87 in 7.0 miles South 11.5 mph - N/A Rain Light Rain
12:58 AM 48.2°F 48.2°F 100% 29.89 in 7.0 miles South 11.5 mph - 0.00 in Rain Light Rain
1:08 AM 48.2°F 48.2°F 100% 29.87 in 8.0 miles South 10.4 mph - N/A   Overcast
1:58 AM 48.6°F 48.6°F 100% 29.88 in 10.0 miles SSW 11.5 mph - 0.00 in   Overcast
2:58 AM 47.8°F 47.8°F 100% 29.89 in 10.0 miles SSW 16.1 mph - N/A   Overcast
3:58 AM 44.1°F 44.1°F 100% 29.91 in 10.0 miles SSW 12.7 mph - N/A   Scattered Clouds
4:58 AM 40.6°F 40.6°F 100% 29.92 in 10.0 miles SSW 15.0 mph - N/A   Clear
5:22 AM 41.0°F 39.2°F 93% 29.89 in 10.0 miles SSW 18.4 mph - N/A   Clear
5:49 AM 39.2°F 39.2°F 100% 29.91 in 10.0 miles WSW 11.5 mph - N/A   Clear
5:50 AM 39.2°F 39.2°F 100% 29.91 in 10.0 miles WSW 10.4 mph - N/A   Clear
5:58 AM 39.2°F 39.2°F 100% 29.96 in 10.0 miles SW 10.4 mph - 0.00 in   Clear
6:11 AM 37.4°F 37.4°F 100% 29.91 in 10.0 miles SSW 18.4 mph - N/A   Clear
6:21 AM 37.4°F 37.4°F 100% 29.92 in 10.0 miles SW 12.7 mph - N/A   Clear
6:28 AM 37.4°F 37.4°F 100% 29.92 in 10.0 miles SW 18.4 mph - N/A   Clear
6:37 AM 39.2°F 39.2°F 100% 29.93 in 10.0 miles SW 13.8 mph - N/A   Clear
6:45 AM 39.2°F 37.4°F 93% 29.93 in 10.0 miles SW 16.1 mph - N/A   Clear
6:59 AM 38.3°F 38.3°F 100% 29.96 in 10.0 miles SW 16.1 mph - 0.00 in   Clear
7:53 AM 39.2°F 39.2°F 100% 29.95 in 10.0 miles SSW 19.6 mph - N/A   Clear
7:58 AM 39.6°F 39.2°F 99% 29.98 in 10.0 miles SSW 19.6 mph - 0.00 in   Clear
8:46 AM 42.8°F 35.6°F 76% 29.96 in 10.0 miles SW 15.0 mph 20.7 mph N/A   Clear
8:58 AM 43.0°F 35.4°F 75% 29.99 in 10.0 miles SW 12.7 mph - 0.00 in   Clear
8:59 AM 42.8°F 35.6°F 76% 29.97 in 10.0 miles SW 15.0 mph - N/A   Clear
9:18 AM 44.6°F 32.0°F 61% 29.97 in 10.0 miles SW 20.7 mph - N/A   Clear
9:21 AM 44.6°F 32.0°F 61% 29.97 in 10.0 miles SW 17.3 mph - N/A   Clear
9:23 AM 44.6°F 32.0°F 61% 29.98 in 10.0 miles SW 18.4 mph - N/A   Clear
9:58 AM 46.0°F 33.3°F 61% 30.00 in 10.0 miles SW 20.7 mph 26.5 mph 0.00 in   Clear
10:58 AM 47.3°F 32.9°F 57% 30.00 in 10.0 miles SW 17.3 mph - N/A   Scattered Clouds
11:58 AM 48.7°F 30.7°F 50% 30.01 in 10.0 miles WSW 12.7 mph - N/A   Scattered Clouds
12:58 PM 49.3°F 29.7°F 47% 30.01 in 10.0 miles WSW 13.8 mph - N/A   Clear
1:58 PM 49.8°F 28.2°F 43% 30.01 in 10.0 miles SSW 8.1 mph - N/A   Scattered Clouds
2:58 PM 48.9°F 25.2°F 40% 30.03 in 10.0 miles SW 13.8 mph - N/A   Partly Cloudy
3:58 PM 45.7°F 24.6°F 44% 30.04 in 10.0 miles SW 9.2 mph - N/A   Clear
4:58 PM 40.3°F 26.2°F 57% 30.06 in 10.0 miles SSW 9.2 mph - N/A   Clear
5:58 PM 38.3°F 27.3°F 65% 30.06 in 10.0 miles SSW 8.1 mph - N/A   Clear
6:44 PM 35.6°F 32.0°F 87% 30.00 in 10.0 miles SSW 6.9 mph - N/A   Clear
6:58 PM 36.9°F 32.5°F 84% 30.06 in 10.0 miles SW 6.9 mph - 0.00 in   Clear
6:59 PM 37.4°F 32.0°F 81% 30.00 in 10.0 miles SW 5.8 mph - N/A   Clear
7:10 PM 35.6°F 32.0°F 87% 30.00 in 10.0 miles South 5.8 mph - N/A   Clear
7:21 PM 35.6°F 32.0°F 87% 30.00 in 10.0 miles South 5.8 mph - N/A   Clear
7:58 PM 34.7°F 34.2°F 98% 30.05 in 10.0 miles South 2.3 mph - 0.00 in   Clear
8:58 PM 35.1°F 33.4°F 94% 30.03 in 10.0 miles SSW 2.3 mph - N/A   Clear
9:58 PM 34.0°F 33.3°F 97% 30.02 in 10.0 miles Calm Calm - N/A   Clear
10:17 PM 35.6°F 32.0°F 87% 29.96 in 10.0 miles East 5.8 mph - N/A   Clear
10:26 PM 32.0°F 32.0°F 100% 29.96 in 10.0 miles ESE 6.9 mph - N/A   Clear
10:32 PM 32.0°F 32.0°F 100% 29.96 in 10.0 miles ESE 6.9 mph - N/A   Clear
10:43 PM 30.2°F 30.2°F 100% 29.96 in 10.0 miles ESE 8.1 mph - N/A   Clear
10:58 PM 30.9°F 30.9°F 100% 30.01 in 10.0 miles ESE 4.6 mph - 0.00 in   Clear
11:11 PM 30.2°F 30.2°F 100% 29.95 in 10.0 miles SE 6.9 mph - N/A   Clear
11:22 PM 30.2°F 30.2°F 100% 29.95 in 10.0 miles SSE 4.6 mph - N/A   Clear
11:58 PM 33.8°F 33.8°F 100% 29.99 in 10.0 miles East 4.6 mph - 0.00 in   Clear
Moon Phase
Nov. 07 Nov. 13 Nov. 20 Nov. 28 Dec. 06
Sunrise:06:44 AM (PST) Moon Rise:No Moon Rise/
Sunset:04:23 PM (PST) Moon Set:01:00 PM (PST)11/7

Copyright © 2014 The Weather Underground, Inc.